TimeCDT,TemperatureF,Dew PointF,Humidity,Sea Level PressureIn,VisibilityMPH,Wind Direction,Wind SpeedMPH,Gust SpeedMPH,PrecipitationIn,Events,Conditions,WindDirDegrees,DateUTC
12:53 AM,44.1,35.1,71,29.88,10.0,WSW,8.1,-,N/A,,Clear,250,2013-10-06 05:53:00
1:53 AM,45.0,34.0,65,29.88,10.0,WSW,10.4,-,N/A,,Scattered Clouds,240,2013-10-06 06:53:00
2:53 AM,43.0,35.1,74,29.86,10.0,WSW,6.9,-,N/A,,Scattered Clouds,250,2013-10-06 07:53:00
3:53 AM,46.9,35.1,63,29.83,10.0,West,16.1,25.3,N/A,,Overcast,270,2013-10-06 08:53:00
4:53 AM,46.9,36.0,66,29.84,10.0,West,9.2,17.3,N/A,,Overcast,270,2013-10-06 09:53:00
5:01 AM,46.4,35.6,66,29.84,10.0,West,15.0,20.7,N/A,,Overcast,280,2013-10-06 10:01:00
5:13 AM,46.4,35.6,66,29.84,10.0,West,11.5,25.3,N/A,,Overcast,270,2013-10-06 10:13:00
5:48 AM,46.4,37.4,71,29.84,10.0,West,9.2,23.0,N/A,,Overcast,270,2013-10-06 10:48:00
5:53 AM,46.9,37.0,68,29.84,10.0,West,10.4,-,N/A,,Overcast,270,2013-10-06 10:53:00
6:02 AM,46.4,35.6,66,29.84,10.0,West,10.4,20.7,N/A,,Overcast,280,2013-10-06 11:02:00
6:23 AM,46.4,37.4,71,29.84,10.0,WNW,12.7,-,N/A,,Overcast,290,2013-10-06 11:23:00
6:42 AM,46.4,37.4,71,29.84,10.0,West,13.8,18.4,N/A,,Overcast,280,2013-10-06 11:42:00
6:53 AM,46.9,37.9,71,29.84,10.0,West,16.1,26.5,N/A,,Overcast,280,2013-10-06 11:53:00
7:53 AM,46.9,37.9,71,29.86,10.0,WNW,15.0,27.6,N/A,,Mostly Cloudy,300,2013-10-06 12:53:00
8:23 AM,46.4,39.2,76,29.87,10.0,WNW,15.0,-,N/A,,Overcast,300,2013-10-06 13:23:00
8:48 AM,46.4,39.2,76,29.88,10.0,WNW,13.8,25.3,N/A,,Overcast,300,2013-10-06 13:48:00
8:53 AM,48.0,39.0,71,29.88,10.0,WNW,15.0,25.3,N/A,,Overcast,290,2013-10-06 13:53:00
9:38 AM,50.0,39.2,66,29.88,10.0,WNW,13.8,18.4,N/A,,Mostly Cloudy,290,2013-10-06 14:38:00
9:53 AM,50.0,39.9,68,29.89,10.0,NW,16.1,24.2,N/A,,Overcast,310,2013-10-06 14:53:00
10:04 AM,51.8,39.2,62,29.89,10.0,NW,15.0,23.0,N/A,,Overcast,310,2013-10-06 15:04:00
10:15 AM,51.8,39.2,62,29.90,10.0,NW,16.1,24.2,N/A,,Overcast,310,2013-10-06 15:15:00
10:53 AM,52.0,39.0,61,29.91,10.0,NW,19.6,28.8,N/A,,Mostly Cloudy,310,2013-10-06 15:53:00
11:11 AM,53.6,39.2,58,29.90,10.0,WNW,16.1,23.0,N/A,,Mostly Cloudy,290,2013-10-06 16:11:00
11:53 AM,55.0,39.0,55,29.90,10.0,West,15.0,23.0,N/A,,Overcast,280,2013-10-06 16:53:00
12:53 PM,54.0,39.9,59,29.91,10.0,West,15.0,21.9,N/A,,Overcast,280,2013-10-06 17:53:00
1:53 PM,55.0,42.1,62,29.89,10.0,West,9.2,-,0.00,,Overcast,270,2013-10-06 18:53:00
2:53 PM,55.9,42.1,60,29.88,10.0,WNW,16.1,23.0,N/A,,Overcast,300,2013-10-06 19:53:00
3:53 PM,53.1,44.1,71,29.89,10.0,WNW,10.4,20.7,0.00,Rain,Light Rain,300,2013-10-06 20:53:00
4:53 PM,53.1,44.1,71,29.91,10.0,WNW,15.0,-,0.00,,Overcast,290,2013-10-06 21:53:00
5:37 PM,51.8,44.6,76,29.93,10.0,NW,11.5,-,N/A,,Overcast,310,2013-10-06 22:37:00
5:53 PM,52.0,43.0,71,29.94,10.0,NW,15.0,21.9,N/A,,Overcast,310,2013-10-06 22:53:00
6:53 PM,51.1,43.0,74,29.95,10.0,NW,10.4,19.6,N/A,,Overcast,310,2013-10-06 23:53:00
7:49 PM,51.8,44.6,76,29.96,10.0,NW,11.5,-,N/A,,Overcast,320,2013-10-07 00:49:00
7:53 PM,52.0,44.1,74,29.97,10.0,NW,10.4,-,N/A,,Overcast,320,2013-10-07 00:53:00
8:53 PM,52.0,44.1,74,29.99,10.0,NW,10.4,-,N/A,,Overcast,320,2013-10-07 01:53:00
9:53 PM,48.9,44.1,83,30.00,10.0,WNW,6.9,-,N/A,,Scattered Clouds,300,2013-10-07 02:53:00
10:53 PM,46.9,43.0,86,30.01,10.0,WNW,3.5,-,N/A,,Clear,290,2013-10-07 03:53:00
11:53 PM,44.1,42.1,93,30.01,10.0,WSW,4.6,-,N/A,,Clear,240,2013-10-07 04:53:00